[[{"header":{"parameterUnit":"m.s-1","parameterCategory":1,"la1":30.2992,"la2":30.254,"lo1":-89.0895,"lo2":-89.0443,"dy":0.0025,"dx":0.0025,"nx":19,"ny":19,"refTime":"2026-03-18T09:00:00:Z","depth":0,"parameterNumber":2,"parameterNumberName":"U-component_of_WINDS"},"data":[0,0,0,-2.5122,-2.5124,-2.5235,-2.5236,-2.539,-2.5392,0,0,0,0,0,0,0,0,0,0,0,-2.5099,-2.51,-2.5121,-2.5125,-2.5235,-2.5236,-2.539,-2.5392,0,0,0,0,0,0,0,0,0,0,0,-2.5098,-2.51,-2.5102,-2.5125,-2.5235,-2.5236,-2.5389,-2.5301,0,0,0,0,0,0,0,0,0,0,-2.5191,-2.518,-2.5099,-2.5102,-2.5126,-2.5235,-2.5236,-2.5296,-2.5306,-2.5346,0,-2.5386,0,-2.5391,-2.5403,-2.5403,0,0,0,-2.5117,-2.5172,-2.5193,-2.5102,-2.5127,-2.5235,-2.5183,-2.5302,-2.5313,-2.5359,-2.5388,-2.5393,-2.5394,-2.5404,-2.5405,-2.5663,-2.5665,0,0,-2.5111,-2.5124,-2.5185,-2.5201,-2.5187,-2.518,-2.5187,-2.5308,-2.5339,-2.5388,-2.5396,-2.5396,-2.5405,-2.5406,-2.5662,-2.5664,0,0,0,-2.5098,-2.512,-2.5137,-2.5195,-2.5214,-2.5183,-2.5191,-2.5334,-2.5339,-2.5398,-2.5398,-2.5406,-2.5408,-2.566,-2.5662,-2.5753,0,0,0,-2.5094,-2.5113,-2.5135,-2.5144,-2.5212,-2.5276,-2.5214,-2.533,-2.5344,-2.5397,-2.5406,-2.541,-2.5658,-2.5661,-2.5747,-2.5793,0,0,0,-2.5088,-2.5112,-2.5131,-2.5145,-2.5193,-2.5273,-2.5285,-2.5333,-2.5344,-2.5404,-2.541,-2.5657,-2.5661,-2.5741,-2.5784,-2.5864,0,0,0,-2.5085,-2.521,-2.5133,-2.5273,-2.5192,-2.5329,-2.5284,-2.5385,-2.5447,-2.5407,-2.5659,-2.5662,-2.5739,-2.5778,-2.5858,-2.5933,-2.5966,0,0,-2.525,-2.5231,-2.5312,-2.5246,-2.54,-2.5311,-2.5478,-2.5522,-2.5515,-2.5614,-2.562,-2.5749,-2.5783,-2.5863,-2.6147,-2.6174,0,0,0,-2.5368,-2.5427,-2.5465,-2.5525,-2.5562,-2.5596,-2.5613,-2.5629,-2.5712,-2.5569,-2.5799,-2.582,-2.5866,-2.5901,-2.5923,-2.5961,-2.5679,-2.5679,-2.5679,-2.562,-2.5605,-2.5738,-2.5736,-2.5794,-2.581,-2.5855,-2.5879,-2.5846,-2.5901,-2.593,-2.6105,-2.6147,-2.6163,-2.6203,-2.5969,-2.597,-2.597,-2.597,-2.586,-2.5939,-2.5893,-2.6005,-2.5988,-2.6081,-2.61,-2.6073,-2.6156,-2.6082,-2.6122,-2.6041,-2.6193,-2.6226,-2.5977,-2.5976,-2.5975,-2.5974,-2.5974,-2.6023,-2.6058,-2.6076,-2.616,-2.6226,-2.6219,-2.6301,-2.6282,-2.6264,-2.6304,-2.6331,-2.6329,-2.6324,-2.6318,-2.6319,-2.6319,-2.632,-2.632,-2.6321,-2.6184,-2.6201,-2.6273,-2.6322,-2.6357,-2.6401,-2.6417,-2.6451,-2.6482,-2.6462,-2.6462,-2.6423,-2.6211,-2.6157,-2.633,-2.6328,-2.6327,-2.6326,-2.6326,-2.6431,-2.6372,-2.6483,-2.6518,-2.6573,-2.6639,-2.6614,-2.6683,-2.6708,-2.6748,-2.6701,-2.6548,-2.6526,-2.6508,-2.6463,-2.6705,-2.6705,-2.6705,-2.6705,-2.6567,-2.6554,-2.6663,-2.672,-2.6774,-2.6763,-2.6886,-2.6899,-2.6903,-2.6917,-2.6879,-2.6819,-2.6801,-2.6789,-2.6765,-2.6723,-2.7026,-2.7026,-2.7026,-2.6717,-2.6708,-2.6818,-2.6823,-2.6864,-2.6899,-2.7014,-2.708,-2.7072,-2.7039,-2.6927,-2.6913,-2.6815,-2.6785,-2.6748,-2.6712,-2.6634,0,0]},{"header":{"parameterUnit":"m.s-1","parameterCategory":1,"la1":30.2992,"la2":30.254,"lo1":-89.0895,"lo2":-89.0443,"dy":0.0025,"dx":0.0025,"nx":19,"ny":19,"refTime":"2026-03-18T09:00:00:Z","depth":0,"parameterNumber":3,"parameterNumberName":"V-component_of_WINDS"},"data":[0,0,0,-3.5027,-3.503,-3.5167,-3.5168,-3.5343,-3.5345,0,0,0,0,0,0,0,0,0,0,0,-3.499,-3.4991,-3.5027,-3.5031,-3.5167,-3.5168,-3.5343,-3.5345,0,0,0,0,0,0,0,0,0,0,0,-3.4989,-3.4991,-3.4992,-3.5031,-3.5167,-3.5168,-3.5343,-3.5239,0,0,0,0,0,0,0,0,0,0,-3.5105,-3.5074,-3.499,-3.4992,-3.5032,-3.5167,-3.5168,-3.5234,-3.5245,-3.5282,0,-3.5319,0,-3.5335,-3.5357,-3.5358,0,0,0,-3.5028,-3.5065,-3.5099,-3.4993,-3.5033,-3.5167,-3.5105,-3.524,-3.5253,-3.5298,-3.5321,-3.5327,-3.5338,-3.5358,-3.5359,-3.5587,-3.5588,0,0,-3.502,-3.5016,-3.509,-3.5108,-3.5089,-3.51,-3.5109,-3.5248,-3.5272,-3.5322,-3.5331,-3.534,-3.5359,-3.5361,-3.5586,-3.5587,0,0,0,-3.5001,-3.501,-3.5041,-3.5101,-3.5125,-3.5105,-3.5114,-3.5266,-3.5276,-3.5333,-3.5343,-3.536,-3.5363,-3.5585,-3.5586,-3.5641,0,0,0,-3.4996,-3.4999,-3.5038,-3.5037,-3.5123,-3.5198,-3.5129,-3.5267,-3.5283,-3.5342,-3.536,-3.5364,-3.5583,-3.5586,-3.5636,-3.5667,0,0,0,-3.498,-3.4997,-3.5018,-3.5036,-3.5095,-3.5196,-3.5214,-3.527,-3.5289,-3.5358,-3.5365,-3.5583,-3.5585,-3.5633,-3.5661,-3.5725,0,0,0,-3.4961,-3.5064,-3.5019,-3.5137,-3.5094,-3.5229,-3.5213,-3.5314,-3.538,-3.5361,-3.5584,-3.5586,-3.5631,-3.5657,-3.5721,-3.5778,-3.5801,0,0,-3.5089,-3.508,-3.515,-3.5113,-3.5255,-3.5209,-3.5358,-3.5423,-3.5433,-3.5534,-3.554,-3.5638,-3.566,-3.5724,-3.5936,-3.5955,0,0,0,-3.5188,-3.5239,-3.5277,-3.5341,-3.5393,-3.5439,-3.5481,-3.5505,-3.5591,-3.5485,-3.5679,-3.5692,-3.573,-3.5757,-3.5773,-3.5805,-3.5599,-3.5599,-3.5598,-3.5362,-3.537,-3.5486,-3.551,-3.5571,-3.5613,-3.5662,-3.57,-3.5691,-3.5736,-3.5766,-3.5894,-3.5926,-3.5938,-3.5971,-3.5797,-3.5798,-3.5798,-3.5798,-3.5549,-3.5621,-3.5605,-3.5711,-3.5718,-3.5807,-3.585,-3.5839,-3.5921,-3.5872,-3.5906,-3.5851,-3.5958,-3.5987,-3.5802,-3.5801,-3.5801,-3.58,-3.58,-3.5663,-3.5699,-3.5726,-3.5817,-3.5885,-3.5905,-3.5985,-3.5988,-3.5992,-3.6025,-3.6056,-3.6055,-3.6053,-3.6039,-3.604,-3.604,-3.6041,-3.6041,-3.6041,-3.577,-3.5799,-3.5867,-3.593,-3.597,-3.6023,-3.6064,-3.6103,-3.6146,-3.6142,-3.6142,-3.6127,-3.5968,-3.5927,-3.6048,-3.6047,-3.6046,-3.6045,-3.6045,-3.5956,-3.5914,-3.6019,-3.6059,-3.6132,-3.6199,-3.6202,-3.628,-3.6312,-3.635,-3.6327,-3.621,-3.62,-3.6188,-3.6154,-3.6326,-3.6326,-3.6326,-3.6326,-3.6052,-3.6047,-3.6154,-3.6217,-3.628,-3.6293,-3.6408,-3.644,-3.6466,-3.6486,-3.6462,-3.6417,-3.6404,-3.6403,-3.6385,-3.6354,-3.6573,-3.6574,-3.6574,-3.6166,-3.6167,-3.6266,-3.6292,-3.6349,-3.6397,-3.6505,-3.6576,-3.6597,-3.6584,-3.6501,-3.6491,-3.642,-3.6396,-3.6381,-3.6354,-3.6297,0,0]}]]